Location: Wien
(48.2082°N, 16.3738°E)
Time: 05:21:44
(UTC+02:00)

Envisat - Visible Passes

Search period start: 15 September 2024 00:00
Search period end: 25 September 2024 00:00
Orbit: 762 x 764 km, 98.3° (Epoch: 14 September)

Date Brightness Start Highest point End Pass type
(mag) Time Alt. Az. Time Alt. Az. Time Alt. Az.
15 Sep 5.3 02:50:37 10° NE 02:53:48 17° E 02:55:32 14° ESE visible
15 Sep 2.9 04:28:15 10° N 04:33:20 73° WNW 04:35:41 32° SSW visible
16 Sep 3.5 03:50:51 10° NNE 03:55:50 54° E 03:57:41 35° SSE visible
16 Sep 4.2 05:30:28 10° N 05:34:28 24° WNW 05:37:49 13° WSW visible
17 Sep 4.7 03:13:53 10° NE 03:18:08 26° E 03:19:41 23° ESE visible
17 Sep 3.3 04:52:28 10° N 04:57:19 46° WNW 04:59:49 26° SW visible
18 Sep 5.6 02:38:05 10° ENE 02:40:14 13° E 02:41:41 11° ESE visible
18 Sep 2.9 04:14:50 10° NNE 04:19:57 87° ESE 04:21:50 40° SSW visible
18 Sep 4.7 05:55:12 10° NNW 05:58:14 16° NW 06:01:15 10° W visible
19 Sep 4.0 03:37:34 10° NNE 03:42:23 42° E 03:43:49 34° SE visible
19 Sep 3.9 05:16:49 10° N 05:21:12 30° WNW 05:23:58 18° WSW visible
20 Sep 5.0 03:00:51 10° NE 03:04:37 21° E 03:05:48 19° ESE visible
20 Sep 3.0 04:38:58 10° N 04:43:58 59° WNW 04:45:57 35° SW visible
21 Sep 3.2 04:01:27 10° NNE 04:06:32 68° ESE 04:07:57 46° SSE visible
21 Sep 4.4 05:41:23 10° NNW 05:45:00 20° WNW 05:48:05 12° W visible
22 Sep 4.4 03:24:20 10° NNE 03:28:54 32° E 03:29:56 30° ESE visible
22 Sep 3.6 05:03:14 10° N 05:07:54 38° WNW 05:10:04 25° WSW visible
23 Sep 5.3 02:47:59 10° NE 02:51:03 16° E 02:51:54 15° E visible
23 Sep 2.9 04:25:30 10° N 04:30:35 76° WNW 04:32:03 47° SSW visible
23 Sep 4.8 06:06:21 10° NNW 06:08:43 13° NW 06:11:04 10° W visible
24 Sep 3.6 03:48:06 10° NNE 03:53:05 52° E 03:54:03 45° SE visible
24 Sep 4.1 05:27:39 10° N 05:31:44 25° WNW 05:34:11 17° W visible
